Temp
83 82 83 85 84 81 82 84 85 87 87 86 87 88 87 87 87 85 85 87 81 81 81 81 79 81 81 79 82 79 77 78 78 86 91 87 85 84 84 84 85 83 79
83 82 81 78 82 84 85 85 86 84 86 85 86 87 87 87 87 85 85 87 84 82 83 81 79 82 81 82 85 81 82 83 82 78 84 84 82 85 82 82 83 86 80
81 81 82 82 74 79 80 80 79 83 85 86 84 85 86 87 87 86 86 86 85 84 84 81 81 82 80 85 84 79 81 80 77 78 81 85 81 84 83 82 82 79 79
77 77 77 77 81 79 81 82 81 83 83 84 85 83 85 87 87 87 86 85 85 86 85 84 84 84 83 83 83 77 80 80 78 78 82 82 76 78 82 81 79 82 81
75 75 74 73 75 79 81 83 85 84 84 81 84 85 82 85 89 83 86 86 84 85 85 86 86 84 77 80 84 79 76 77 77 74 79 80 80 78 75 83 80 83 82
76 75 74 72 71 69 70 74 78 78 78 76 81 82 83 86 73 69 77 87 86 83 83 85 86 77 76 70 70 70 79 77 77 79 79 77 78 79 80 82 83 79 78
75 77 76 71 68 68 70 71 69 68 68 68 70 70 73 76 64 63 65 81 82 84 83 83 85 89 79 84 69 67 68 68 70 80 78 79 80 81 81 79 79 77 78
75 74 76 75 76 74 69 71 70 71 68 68 69 71 72 75 63 61 63 72 77 79 82 81 81 86 83 84 84 81 81 81 79 83 82 83 84 84 83 82 79 76 80
74 75 75 74 74 75 75 75 75 74 76 77 74 73 75 77 60 59 63 71 71 77 81 83 81 81 70 64 83 81 80 82 74 67 67 66 65 65 73 82 81 78 77
73 74 76 76 76 75 74 73 76 77 77 80 78 78 70 77 58 56 62 73 71 74 74 76 64 69 62 61 78 79 78 80 85 83 81 74 69 74 63 79 85 80 78
72 74 74 75 75 75 74 71 74 73 73 75 74 71 71 66 71 54 55 70 72 73 73 72 74 60 57 55 58 78 70 70 72 76 81 82 83 82 84 81 82 81 78
74 73 73 74 76 75 74 72 73 73 70 66 66 64 63 63 54 56 52 55 62 70 73 76 76 55 53 53 58 57 55 60 69 70 72 77 79 79 81 82 82 83 82
74 73 73 74 74 75 75 75 73 69 66 64 63 62 62 63 63 53 52 55 57 67 72 65 57 53 53 56 55 54 55 67 67 68 69 72 76 78 79 78 79 80 79
72 73 74 75 74 76 80 79 80 76 74 70 67 65 67 72 67 69 65 63 58 63 62 63 59 59 57 60 61 59 66 67 67 67 68 68 69 71 71 73 73 74 70
74 74 75 78 76 76 75 73 77 69 67 78 78 75 70 69 64 51 55 65 62 56 60 63 62 62 63 63 65 66 65 64 64 65 64 65 66 67 66 69 69 70 69
71 76 77 79 80 80 78 74 49 49 45 44 44 61 68 50 45 44 44 45 46 49 62 71 75 72 69 70 67 64 64 63 63 63 63 64 65 71 74 74 72 70 69
71 73 76 71 80 79 78 78 76 60 45 44 43 44 44 45 44 45 46 45 47 52 78 76 70 68 69 70 69 70 69 69 69 69 68 69 72 74 69 67 66 69 67
73 56 75 77 81 81 80 79 80 79 77 73 49 51 43 43 43 45 47 49 74 70 74 71 68 67 67 67 67 67 67 67 69 69 67 65 65 66 64 64 64 64 65
77 79 78 80 81 74 82 81 82 81 81 80 74 56 52 44 45 46 47 76 78 76 75 71 69 67 67 64 64 64 64 67 67 67 66 64 63 62 63 63 63 56 58
77 64 65 79 81 80 83 83 83 81 80 82 79 80 73 64 74 77 78 78 79 78 77 73 70 69 67 70 70 72 70 66 65 65 64 66 66 66 66 65 64 62 63
81 80 66 79 81 82 83 80 82 82 82 81 78 72 52 77 77 78 81 79 79 79 79 78 77 75 74 73 74 74 74 74 72 74 76 72 71 70 66 68 68 67 63
79 80 82 80 81 80 82 83 81 82 82 82 81 70 46 74 81 78 79 80 80 79 81 79 82 81 81 81 78 80 78 78 77 78 79 79 78 76 73 74 71 69 64
79 79 79 80 80 67 78 83 82 81 82 83 82 82 78 79 82 84 78 79 80 79 79 79 80 81 81 80 81 79 81 80 79 78 77 78 73 77 75 72 77 74 72
80 79 79 80 81 80 81 80 81 64 76 82 84 83 82 82 82 80 80 81 80 79 80 79 79 81 80 78 81 80 81 80 78 79 75 75 72 66 72 71 71 72 73
80 78 79 79 79 78 79 79 79 80 80 81 83 82 83 83 82 81 81 79 80 80 79 80 80 79 77 77 78 78 54 45 62 47 75 76 74 72 74 73 72 74 72
80 78 78 78 78 79 78 79 79 79 79 80 81 81 81 81 83 83 81 80 76 80 79 79 78 78 78 78 77 54 40 39 55 39 68 75 75 75 73 73 71 72 73
MSLP
1006.01 1005.79 1005.57 1005.35 1005.44 1005.81 1005.96 1005.81 1006.30 1006.58 1006.79 1007.32 1007.65 1007.93 1008.28 1008.58 1009.09 1009.56 1009.76 1009.78 1010.63 1011.24 1011.46 1011.49 1011.86 1012.16 1012.32 1012.50 1012.67 1012.92 1013.14 1013.10 1012.65 1011.91 1011.61 1011.90 1012.50 1012.89 1012.90 1013.02 1012.94 1012.87 1013.30
1005.92 1005.95 1005.78 1005.62 1005.20 1004.91 1004.70 1005.14 1005.63 1006.10 1006.33 1006.59 1006.97 1007.13 1007.29 1007.66 1008.00 1008.51 1008.96 1009.03 1009.47 1009.96 1010.06 1010.57 1010.70 1010.87 1011.29 1011.54 1011.63 1011.94 1012.12 1012.13 1012.21 1011.86 1011.69 1011.91 1012.58 1012.44 1012.75 1012.77 1012.71 1012.58 1013.01
1005.93 1005.86 1005.63 1005.31 1005.41 1004.97 1004.87 1005.11 1005.42 1005.48 1005.62 1005.78 1006.15 1006.31 1006.51 1006.78 1007.21 1007.74 1008.12 1008.40 1008.51 1008.93 1009.02 1009.51 1009.92 1010.04 1010.12 1010.03 1010.49 1011.34 1011.82 1011.99 1012.26 1012.19 1011.65 1011.83 1012.05 1012.22 1012.34 1012.61 1012.62 1012.94 1012.98
1006.07 1005.93 1005.67 1005.40 1004.76 1004.66 1004.54 1004.31 1004.62 1004.72 1005.05 1005.10 1005.15 1005.62 1005.80 1006.02 1006.39 1006.82 1007.31 1007.60 1007.94 1008.17 1008.42 1008.70 1009.04 1009.02 1009.18 1009.41 1009.85 1010.87 1011.07 1011.32 1011.71 1011.86 1011.45 1011.47 1011.95 1012.21 1012.25 1012.13 1012.23 1012.47 1012.46
1005.94 1005.71 1005.56 1005.46 1005.00 1004.25 1003.75 1003.56 1003.47 1003.78 1004.00 1004.59 1004.53 1004.68 1005.26 1005.49 1005.62 1006.31 1006.56 1006.76 1007.23 1007.40 1007.64 1008.06 1008.29 1008.39 1008.62 1008.95 1009.12 1009.91 1010.59 1010.96 1011.14 1011.23 1011.07 1011.27 1011.33 1011.69 1012.02 1011.62 1011.99 1011.80 1011.81
1005.52 1005.40 1005.44 1005.28 1005.00 1004.38 1003.74 1003.55 1003.47 1003.61 1003.59 1004.11 1004.16 1004.15 1004.25 1004.57 1005.16 1005.72 1006.28 1005.84 1006.15 1006.70 1006.94 1007.33 1007.67 1008.49 1008.73 1008.78 1008.92 1008.98 1009.28 1010.18 1010.38 1010.25 1010.25 1010.64 1010.83 1011.04 1011.49 1011.26 1010.90 1011.35 1011.31
1005.27 1004.89 1004.90 1005.17 1005.03 1004.79 1004.50 1004.19 1004.02 1004.10 1004.38 1004.45 1004.61 1004.76 1004.61 1004.85 1005.37 1005.73 1005.97 1005.81 1005.88 1005.91 1006.21 1006.65 1007.23 1007.45 1008.46 1008.63 1008.88 1009.13 1009.25 1009.49 1009.99 1010.07 1009.80 1009.62 1009.91 1010.36 1010.65 1010.91 1010.75 1011.20 1011.29
1005.14 1005.12 1004.84 1004.62 1004.32 1004.36 1004.69 1004.17 1003.83 1004.02 1004.21 1004.45 1004.68 1004.78 1004.79 1004.87 1005.56 1006.02 1006.27 1006.34 1006.28 1006.17 1006.14 1006.54 1006.73 1006.65 1007.53 1007.88 1008.18 1008.27 1008.56 1008.85 1009.40 1009.88 1009.57 1009.39 1009.47 1009.80 1010.16 1010.51 1010.80 1011.10 1011.05
1005.14 1004.88 1004.72 1004.45 1004.27 1004.21 1004.12 1003.84 1003.60 1003.46 1003.61 1003.79 1004.23 1004.44 1004.46 1004.58 1005.24 1005.74 1006.01 1005.94 1006.06 1005.93 1005.87 1005.95 1006.34 1006.52 1006.93 1007.76 1007.92 1007.77 1007.71 1007.48 1008.28 1008.95 1009.52 1009.44 1009.54 1009.53 1009.65 1010.25 1010.06 1010.38 1010.14
1005.62 1005.15 1004.77 1004.61 1004.23 1004.07 1004.02 1003.91 1003.47 1003.16 1003.18 1003.22 1003.58 1003.77 1004.11 1004.24 1004.79 1005.29 1005.77 1005.56 1005.51 1005.45 1005.75 1005.94 1006.44 1006.81 1007.08 1007.65 1007.78 1007.61 1007.15 1007.06 1007.56 1008.41 1009.32 1010.07 1009.85 1010.06 1010.05 1010.03 1009.19 1009.32 1009.33
1005.74 1005.21 1004.92 1004.66 1004.43 1004.34 1004.07 1004.01 1003.46 1003.30 1003.45 1003.34 1003.52 1003.92 1004.35 1004.93 1004.69 1005.27 1005.75 1005.60 1005.33 1005.26 1005.36 1005.93 1006.11 1006.76 1007.19 1007.56 1007.93 1007.39 1007.57 1007.55 1007.67 1008.05 1008.10 1008.69 1008.74 1008.96 1008.92 1009.34 1009.27 1009.01 1008.84
1005.70 1005.65 1005.36 1005.03 1004.66 1004.49 1004.06 1003.92 1003.50 1003.75 1004.03 1004.02 1004.37 1004.79 1005.24 1005.68 1005.77 1005.71 1005.73 1005.78 1005.65 1005.58 1005.49 1005.67 1006.10 1006.65 1007.32 1007.42 1007.86 1008.01 1008.18 1008.01 1008.14 1008.24 1008.37 1008.25 1008.24 1008.32 1008.36 1008.42 1008.50 1008.51 1008.48
1005.55 1005.57 1005.40 1005.23 1005.04 1004.67 1004.23 1003.64 1003.91 1004.47 1004.57 1004.69 1004.76 1005.12 1005.79 1006.06 1006.29 1006.26 1006.02 1005.91 1005.96 1005.79 1005.52 1005.92 1006.49 1006.99 1007.23 1007.43 1007.75 1007.84 1007.83 1008.03 1008.16 1008.09 1008.17 1007.98 1007.96 1008.09 1008.30 1008.43 1008.47 1008.31 1008.48
1005.48 1005.43 1005.29 1005.15 1005.10 1005.01 1004.47 1004.25 1003.77 1004.08 1004.55 1004.90 1005.11 1005.62 1005.94 1006.14 1006.39 1006.28 1006.58 1006.29 1006.32 1006.26 1006.33 1006.51 1006.80 1007.15 1007.06 1007.43 1007.98 1008.11 1007.76 1007.60 1007.60 1007.81 1007.95 1008.18 1008.37 1008.01 1008.67 1008.51 1008.57 1008.49 1008.74
1005.44 1005.24 1005.04 1004.75 1004.88 1004.79 1005.08 1005.39 1004.89 1005.51 1005.62 1004.87 1005.00 1005.26 1006.01 1006.50 1007.15 1007.54 1007.18 1006.63 1006.61 1006.51 1006.64 1006.82 1006.88 1007.13 1007.19 1007.39 1007.40 1007.48 1007.54 1007.77 1007.78 1007.80 1007.95 1008.05 1008.25 1008.51 1008.49 1008.34 1008.18 1008.29 1008.36
1005.63 1004.85 1004.64 1004.40 1004.31 1004.37 1004.58 1005.53 1006.47 1006.70 1006.84 1006.68 1006.69 1006.21 1006.88 1007.61 1008.15 1007.98 1007.72 1007.06 1006.74 1006.69 1006.91 1006.15 1005.77 1006.12 1006.45 1006.77 1007.10 1007.37 1007.47 1007.57 1007.81 1007.98 1007.95 1007.86 1007.73 1007.76 1007.34 1007.44 1007.65 1007.88 1007.89
1005.66 1005.39 1004.95 1004.77 1004.10 1004.16 1004.29 1004.49 1005.06 1006.78 1007.06 1007.00 1006.91 1007.15 1007.36 1007.79 1008.02 1007.75 1007.32 1007.28 1006.83 1006.74 1006.00 1006.12 1006.69 1006.75 1006.59 1006.62 1006.72 1006.92 1007.05 1007.03 1007.61 1007.47 1007.65 1007.43 1007.06 1006.78 1007.32 1007.63 1007.87 1007.65 1007.48
1005.42 1005.47 1005.06 1004.57 1004.22 1003.94 1003.95 1003.96 1004.00 1004.39 1005.19 1006.07 1007.28 1007.28 1007.90 1007.89 1008.18 1007.98 1007.74 1007.21 1006.30 1006.37 1006.56 1006.61 1006.86 1006.94 1007.17 1007.04 1007.30 1007.08 1007.36 1007.15 1007.17 1007.29 1007.42 1007.53 1007.53 1007.36 1007.55 1007.73 1007.59 1007.61 1007.51
1004.79 1004.60 1004.63 1004.20 1004.08 1004.22 1003.75 1003.68 1003.50 1003.83 1004.07 1004.39 1005.78 1007.09 1007.56 1007.80 1007.81 1007.42 1007.15 1006.25 1005.68 1005.75 1006.23 1006.65 1007.04 1007.18 1007.13 1007.21 1007.24 1007.53 1007.58 1007.73 1007.61 1007.60 1007.57 1007.59 1007.64 1007.76 1007.57 1007.70 1007.60 1007.60 1007.47
1004.58 1004.90 1004.86 1004.09 1003.74 1003.68 1003.36 1002.96 1002.87 1003.47 1003.72 1003.76 1004.35 1004.86 1006.33 1007.19 1006.63 1006.10 1006.13 1005.67 1005.51 1005.68 1005.88 1006.55 1007.05 1007.13 1007.36 1007.01 1007.12 1006.94 1007.31 1007.75 1007.67 1007.66 1007.66 1007.61 1007.54 1007.44 1007.39 1007.48 1007.43 1007.33 1007.18
1004.00 1003.90 1004.54 1004.03 1003.53 1003.45 1003.34 1003.20 1002.98 1002.81 1003.04 1003.46 1004.39 1005.76 1006.01 1005.77 1005.02 1005.13 1005.18 1005.27 1005.27 1005.67 1005.92 1005.58 1006.37 1006.50 1006.70 1006.86 1006.78 1006.65 1006.65 1006.76 1007.06 1006.93 1006.81 1006.80 1007.00 1006.90 1007.19 1007.16 1006.96 1006.78 1007.28
1003.84 1003.64 1003.39 1003.44 1003.52 1003.53 1003.41 1003.38 1003.36 1003.23 1003.46 1003.49 1004.07 1006.04 1006.41 1006.28 1004.85 1004.60 1004.53 1004.86 1005.21 1005.71 1005.89 1005.95 1005.71 1005.73 1006.00 1006.19 1006.24 1005.86 1005.94 1006.22 1006.34 1006.26 1006.11 1006.04 1005.95 1006.38 1006.65 1006.43 1006.43 1006.70 1007.06
1003.66 1003.59 1003.45 1003.51 1003.52 1004.07 1003.74 1003.48 1003.43 1003.51 1003.58 1003.74 1004.02 1004.14 1004.84 1004.64 1003.70 1003.88 1004.23 1004.82 1005.37 1005.64 1005.98 1006.11 1005.62 1005.42 1005.92 1006.25 1006.10 1006.13 1005.63 1005.83 1006.02 1006.13 1005.92 1005.80 1006.01 1005.96 1006.07 1006.03 1005.77 1005.88 1006.03
1003.45 1003.51 1003.30 1003.20 1003.35 1003.29 1003.31 1003.55 1003.63 1004.12 1003.98 1003.63 1003.64 1003.95 1003.84 1003.61 1003.29 1003.62 1004.27 1004.66 1005.33 1005.35 1005.43 1005.76 1005.77 1005.47 1005.67 1005.88 1005.73 1005.91 1005.89 1006.10 1006.14 1005.98 1006.34 1005.84 1005.92 1006.06 1005.66 1005.76 1005.71 1005.77 1005.84
1003.26 1003.39 1003.28 1003.26 1003.19 1003.29 1003.23 1003.34 1003.07 1003.16 1003.18 1003.36 1003.36 1003.57 1003.53 1003.82 1003.94 1003.87 1004.02 1004.37 1004.64 1004.93 1005.07 1005.21 1005.26 1005.34 1005.67 1005.68 1005.62 1005.63 1006.76 1007.11 1007.16 1007.30 1006.36 1005.80 1005.79 1005.87 1005.50 1005.42 1005.45 1005.41 1005.71
1003.18 1003.39 1003.30 1003.22 1003.10 1003.07 1003.06 1002.91 1002.88 1002.97 1003.03 1003.04 1003.25 1003.56 1003.70 1003.75 1003.67 1003.83 1003.94 1004.03 1004.54 1004.27 1004.35 1004.54 1004.80 1004.97 1005.05 1005.32 1005.55 1006.26 1006.78 1007.07 1007.14 1007.41 1007.10 1006.31 1005.83 1005.39 1005.31 1005.37 1005.40 1005.29 1005.19
Wind_Speed
7 8 9 11 13 14 14 14 17 16 14 15 17 17 17 18 17 16 16 16 15 16 15 14 15 14 9 8 9 9 8 9 10 10 10 2 5 8 7 7 6 7 4
8 8 9 8 12 14 13 16 16 17 17 15 16 18 17 17 17 18 19 18 18 18 17 14 13 11 14 12 11 11 9 9 9 11 9 6 9 5 7 7 6 4 4
7 9 10 11 9 13 12 10 12 16 17 18 15 18 18 18 18 18 18 19 19 18 16 14 15 15 12 12 11 7 10 8 8 9 9 6 4 5 5 6 5 5 4
7 9 8 9 12 10 14 12 15 16 17 17 18 15 16 16 17 18 18 18 17 16 16 15 17 16 16 14 11 9 10 9 9 8 9 6 5 3 5 6 4 4 4
7 7 6 6 8 11 15 15 14 16 16 16 17 17 14 15 14 14 18 17 16 17 15 15 16 16 14 14 11 12 9 10 8 7 7 6 6 6 6 4 5 5 3
8 6 5 4 4 3 5 2 5 8 12 12 15 17 16 12 11 12 16 17 17 16 15 16 14 13 13 12 11 3 13 12 11 9 9 8 9 6 7 7 6 4 6
7 6 1 2 3 4 2 4 6 5 5 4 2 2 3 3 1 5 11 12 11 15 15 14 14 12 14 15 12 7 8 10 10 10 10 10 8 9 8 8 6 5 7
5 6 6 5 1 2 5 4 4 5 6 4 3 4 5 4 6 7 11 9 11 13 14 14 13 12 15 15 14 15 14 14 14 11 12 9 9 7 7 8 7 7 7
7 5 5 5 5 3 3 2 4 5 5 6 7 8 9 9 12 12 11 9 10 13 14 15 12 11 10 12 13 12 12 12 14 14 12 4 4 3 2 5 7 7 8
7 6 6 6 6 6 5 5 1 3 3 3 4 3 1 6 7 8 7 6 9 8 9 9 8 6 9 13 14 12 11 10 11 11 12 12 8 9 8 10 8 8 9
5 6 7 7 6 6 5 4 1 2 2 2 3 6 7 7 7 6 10 7 6 7 5 5 4 8 7 7 12 7 1 4 4 5 8 10 10 11 10 11 13 10 9
4 3 4 5 6 6 6 4 6 5 6 5 6 5 5 6 10 6 6 8 5 7 8 7 7 11 9 10 6 4 2 2 2 5 6 8 8 8 7 8 10 11 10
3 4 4 4 4 5 6 6 5 7 4 5 5 4 4 2 3 6 7 4 3 4 4 3 8 5 9 7 6 7 7 4 3 3 7 6 5 4 6 7 9 10 10
5 4 3 2 2 2 2 4 4 6 7 6 5 3 3 3 3 3 2 3 4 5 7 5 6 5 2 5 8 6 4 3 3 4 2 4 2 4 5 4 5 6 6
4 4 4 2 1 3 6 6 6 7 7 5 5 6 4 5 4 4 5 3 3 2 3 4 3 2 3 2 2 2 2 1 2 1 1 2 2 4 6 6 6 7 9
6 5 3 4 2 0 1 5 11 9 5 6 7 9 8 10 5 2 3 3 2 3 4 5 4 2 3 4 4 4 4 5 5 5 6 7 7 10 8 7 7 8 9
5 5 4 5 3 3 3 4 7 4 6 9 11 12 12 9 4 2 1 1 2 6 4 5 4 3 5 4 3 1 1 1 2 4 5 6 7 5 5 5 6 8 8
4 4 6 4 2 3 2 4 4 5 8 8 5 5 8 6 2 6 7 5 5 6 4 4 3 3 2 3 2 1 0 1 2 2 3 2 4 4 3 5 5 7 8
5 3 3 3 1 3 1 3 3 3 2 3 7 5 6 4 3 7 9 3 3 5 5 5 4 4 4 3 3 2 3 3 3 1 1 2 2 2 3 4 4 6 6
5 1 4 4 2 4 3 3 4 3 3 3 5 4 8 5 7 5 2 3 3 4 5 6 5 4 4 4 4 4 6 4 3 3 2 1 1 2 2 3 3 4 4
4 4 0 6 4 3 2 4 2 3 1 1 4 6 8 5 2 2 2 3 3 2 3 5 6 5 5 5 4 4 4 4 4 3 2 4 3 4 2 1 3 2 2
4 6 4 6 1 3 1 2 3 3 3 3 4 7 4 7 5 3 2 3 4 3 3 2 2 3 3 2 1 1 3 2 2 0 1 1 2 2 2 1 3 3 2
5 6 5 4 3 4 5 1 1 1 1 2 3 2 8 7 4 2 1 2 3 4 4 5 4 4 3 3 2 3 2 1 2 3 4 3 3 2 2 2 2 2 3
5 6 6 5 3 5 2 3 2 1 5 3 0 1 3 3 4 4 4 5 6 6 5 5 5 5 3 4 3 4 3 3 4 5 3 5 5 4 5 3 2 1 3
5 6 7 6 6 6 5 5 5 4 4 3 2 1 2 2 3 5 5 6 6 6 7 6 5 6 6 7 6 3 9 5 5 7 7 7 7 7 7 5 5 5 4
5 6 7 6 5 6 6 5 5 5 6 4 4 4 3 3 2 3 5 5 4 8 7 7 7 8 6 7 8 6 8 6 4 5 8 8 7 7 6 6 5 6 5
Wind_Direction
313 313 297 257 230 232 228 229 232 226 228 216 222 219 215 215 214 217 223 221 208 223 222 222 219 225 231 232 225 227 228 226 243 262 268 108 278 266 297 269 257 253 184
310 288 279 285 281 261 239 232 232 222 228 223 219 220 220 220 215 220 220 222 214 220 220 221 214 211 216 219 213 216 235 238 246 254 269 293 252 257 260 278 274 266 233
327 313 292 268 250 266 257 237 229 225 224 225 218 228 221 221 220 217 222 219 216 219 215 211 218 215 207 220 216 202 217 225 223 251 263 252 275 247 248 248 275 267 262
300 305 294 283 266 244 247 232 222 221 225 227 220 226 228 224 220 219 217 219 222 219 217 211 212 213 211 209 210 204 235 217 214 233 251 247 245 213 250 270 242 246 237
285 280 282 288 288 268 238 239 240 227 222 219 225 221 223 226 223 219 224 217 218 223 219 217 220 217 207 210 198 197 208 219 216 208 241 248 239 213 242 257 254 265 214
285 292 313 308 308 22 43 315 259 246 233 219 228 229 220 223 212 205 224 224 220 220 220 215 220 207 204 204 219 223 182 210 218 201 208 217 240 234 219 246 240 246 261
303 295 307 274 271 303 86 124 113 107 78 64 56 22 350 269 39 232 247 239 237 227 222 214 211 205 212 212 210 200 198 203 245 229 223 211 220 222 243 212 233 200 249
314 321 325 315 18 200 233 219 162 157 154 175 213 223 240 251 228 243 233 236 250 240 230 215 210 213 196 216 206 200 211 207 217 234 224 227 212 226 217 224 236 215 240
327 330 343 343 330 2 329 197 187 182 193 198 195 221 231 248 209 214 211 216 221 237 225 219 213 222 195 212 224 204 198 210 185 209 264 327 64 96 200 210 215 218 241
338 357 14 6 8 7 2 325 242 158 154 195 192 213 245 272 156 176 206 228 208 202 204 216 223 252 201 194 223 216 205 201 226 188 216 244 232 225 211 234 239 235 258
333 354 9 12 2 2 12 346 353 153 86 90 53 44 24 30 317 186 207 235 222 218 194 201 209 204 183 224 248 221 241 353 236 250 216 221 218 221 221 214 235 243 254
339 346 352 6 9 11 31 22 60 96 94 95 92 68 42 19 6 10 246 250 270 215 221 211 209 166 182 171 202 252 34 38 277 248 243 246 245 239 238 241 236 242 243
338 347 360 11 10 17 15 73 92 88 75 69 76 74 72 83 71 47 46 123 264 269 230 147 123 166 166 164 178 177 166 189 213 222 248 250 275 295 289 270 259 257 265
317 319 316 316 7 359 64 29 88 115 109 118 114 108 122 91 59 66 83 81 78 97 104 90 110 123 128 125 157 181 180 175 180 220 251 265 297 359 306 292 283 277 263
308 301 293 263 3 119 55 18 56 49 7 42 79 116 143 109 65 348 335 118 107 95 127 147 135 131 140 135 148 178 173 184 199 190 215 308 298 255 253 254 240 245 247
308 286 338 285 219 33 189 129 59 49 58 75 66 50 87 67 76 41 47 50 16 285 219 189 167 109 126 147 165 173 190 196 217 223 217 218 222 240 245 247 254 259 260
286 286 274 260 276 271 237 248 160 110 58 51 63 67 61 100 105 58 63 141 296 291 203 121 131 146 144 143 129 84 127 93 310 247 257 259 254 242 247 251 239 261 268
257 202 267 256 260 267 209 217 232 187 173 152 88 87 97 108 188 242 252 293 168 106 94 76 85 96 116 104 93 79 319 276 280 294 282 290 314 301 275 258 240 254 262
249 272 271 262 297 348 243 175 190 157 223 141 134 178 153 166 217 246 256 277 75 106 98 114 130 101 87 89 92 58 20 25 7 323 334 324 343 317 296 278 268 270 290
226 184 273 286 240 248 239 264 154 171 209 211 194 163 151 182 207 174 140 99 108 108 120 106 111 112 105 101 95 136 131 138 102 99 81 28 336 282 303 286 287 312 304
267 186 283 264 253 294 298 273 266 288 226 108 105 63 36 247 261 133 133 129 107 89 128 128 146 133 143 155 149 134 124 106 114 73 56 73 355 58 5 286 311 326 300
263 261 214 254 25 238 292 253 248 258 259 255 154 132 166 246 263 198 179 179 160 189 194 201 195 156 156 130 155 136 142 107 95 128 81 347 116 97 107 113 73 67 63
256 246 233 242 260 96 216 193 175 248 317 281 282 234 179 227 231 231 80 222 198 207 196 228 255 197 171 211 236 267 300 120 348 338 321 322 329 325 228 287 354 47 62
225 227 231 233 221 264 195 226 190 121 324 327 48 314 292 288 268 195 257 221 202 212 209 222 243 276 190 243 212 244 208 359 334 298 273 304 322 202 280 295 298 23 119
218 222 231 238 247 222 255 246 252 258 226 253 274 326 31 330 270 263 227 219 221 228 222 232 242 221 223 240 286 310 93 85 309 349 295 285 281 297 284 271 247 228 212
223 232 239 244 241 243 234 244 241 240 263 243 230 224 249 285 307 304 289 235 258 253 240 234 231 243 239 229 232 128 136 157 231 255 295 277 265 264 267 259 253 285 266